When you browse on this site, cookies collect data to enhance your experience and personalize the content and advertising you see.
Visit our Privacy Policy to learn more. By continuing to use the site, you agree to this use of cookies and data.
  • In United Kingdom
  • List of Countries
  • For 7 days
  • Water Temperature
  • Weather Map
  • Weather Widgets
  • user-avatar
    Login

    Hourly Weather Nottingham

    Today, 24 January, Friday

    Time Temperature Precipitation Wind Pressure Humidity
    00:00 +6°C° 0 mm 1 mps 763 mmHg 95%
    01:00 +5°C° 0 mm 2 mps 763 mmHg 95%
    02:00 +5°C° 0 mm 2 mps 763 mmHg 95%
    03:00 +5°C° 0 mm 2 mps 762 mmHg 95%
    04:00 +6°C° 0 mm 2 mps 762 mmHg 95%
    05:00 +6°C° 0 mm 2 mps 762 mmHg 95%
    06:00 +5°C° 0 mm 3 mps 761 mmHg 95%
    07:00 +5°C° 0 mm 3 mps 761 mmHg 95%
    08:00 +5°C° 0 mm 3 mps 761 mmHg 95%
    09:00 +5°C° 0 mm 3 mps 761 mmHg 95%
    10:00 +7°C° 0 mm 3 mps 761 mmHg 91%
    11:00 +8°C° 0 mm 2 mps 761 mmHg 87%
    12:00 +9°C° 0 mm 2 mps 761 mmHg 84%
    13:00 +9°C° 0 mm 2 mps 760 mmHg 84%
    14:00 +10°C° 0 mm 1 mps 760 mmHg 84%
    15:00 +10°C° 0 mm 1 mps 760 mmHg 84%
    16:00 +9°C° 0 mm 1 mps 760 mmHg 87%
    17:00 +8°C° 0 mm 1 mps 760 mmHg 89%
    18:00 +7°C° 0 mm 1 mps 759 mmHg 92%
    19:00 +7°C° 0 mm 1 mps 759 mmHg 92%
    20:00 +6°C° 0 mm 1 mps 760 mmHg 92%
    21:00 +6°C° 0 mm 1 mps 760 mmHg 92%
    22:00 +6°C° 0 mm 1 mps 759 mmHg 92%
    23:00 +6°C° 0 mm 1 mps 759 mmHg 92%

    Tomorrow, 25 January, Saturday

    Time Temperature Precipitation Wind Pressure Humidity
    00:00 +6°C° 0 mm 1 mps 759 mmHg 92%
    01:00 +6°C° 0 mm 1 mps 759 mmHg 91%
    02:00 +6°C° 0 mm 1 mps 758 mmHg 91%
    03:00 +6°C° 0 mm 1 mps 758 mmHg 90%
    04:00 +7°C° 0 mm 1 mps 758 mmHg 89%
    05:00 +7°C° 0 mm 1 mps 757 mmHg 89%
    06:00 +7°C° 0 mm 1 mps 757 mmHg 88%
    07:00 +6°C° 0 mm 2 mps 757 mmHg 89%
    08:00 +6°C° 0 mm 2 mps 757 mmHg 90%
    09:00 +5°C° 0 mm 3 mps 757 mmHg 91%
    10:00 +5°C° 0 mm 3 mps 757 mmHg 87%
    11:00 +7°C° 0 mm 3 mps 757 mmHg 83%
    12:00 +7°C° 0 mm 3 mps 756 mmHg 79%
    13:00 +7°C° 0 mm 3 mps 756 mmHg 80%
    14:00 +7°C° 0 mm 3 mps 755 mmHg 82%
    15:00 +6°C° 0 mm 4 mps 755 mmHg 83%
    16:00 +7°C° 0 mm 3 mps 754 mmHg 86%
    17:00 +7°C° 0 mm 3 mps 754 mmHg 88%
    18:00 +5°C° 0 mm 3 mps 754 mmHg 91%
    19:00 +5°C° 0 mm 3 mps 754 mmHg 92%
    20:00 +5°C° 0 mm 3 mps 753 mmHg 94%
    21:00 +5°C° 0 mm 4 mps 753 mmHg 95%
    22:00 +5°C° 0 mm 4 mps 753 mmHg 95%
    23:00 +5°C° 0 mm 3 mps 752 mmHg 94%

    Day after tomorrow, 26 January, Sunday

    Time Temperature Precipitation Wind Pressure Humidity
    00:00 +5°C° 0 mm 3 mps 752 mmHg 94%
    01:00 +5°C° 0 mm 4 mps 751 mmHg 94%
    02:00 +6°C° 0 mm 4 mps 751 mmHg 94%
    03:00 +6°C° 0 mm 4 mps 750 mmHg 95%
    04:00 +6°C° 0 mm 5 mps 750 mmHg 93%
    05:00 +6°C° 0 mm 5 mps 750 mmHg 91%
    06:00 +5°C° 0 mm 6 mps 749 mmHg 89%
    07:00 +5°C° 0 mm 6 mps 749 mmHg 89%
    08:00 +4°C° 0 mm 6 mps 749 mmHg 88%
    09:00 +3°C° 0 mm 6 mps 749 mmHg 88%
    10:00 +4°C° 0.3 mm 6 mps 748 mmHg 87%
    11:00 +5°C° 0.3 mm 7 mps 748 mmHg 87%
    12:00 +6°C° 0.3 mm 7 mps 747 mmHg 87%
    13:00 +6°C° 1.4 mm 7 mps 747 mmHg 88%
    14:00 +7°C° 1.4 mm 6 mps 747 mmHg 90%
    15:00 +7°C° 1.4 mm 6 mps 746 mmHg 92%
    16:00 +7°C° 0.4 mm 5 mps 746 mmHg 92%
    17:00 +7°C° 0.4 mm 4 mps 746 mmHg 92%
    18:00 +6°C° 0.4 mm 4 mps 746 mmHg 93%
    19:00 +7°C° 0.1 mm 3 mps 746 mmHg 92%
    20:00 +7°C° 0.1 mm 3 mps 746 mmHg 91%
    21:00 +5°C° 0.1 mm 3 mps 746 mmHg 91%
    22:00 +5°C° 0 mm 3 mps 745 mmHg 92%
    23:00 +4°C° 0 mm 4 mps 745 mmHg 93%

    27 January, Monday

    Time Temperature Precipitation Wind Pressure Humidity
    00:00 +4°C° 0 mm 4 mps 745 mmHg 94%
    01:00 +3°C° 0 mm 5 mps 745 mmHg 93%
    02:00 +3°C° 0 mm 5 mps 744 mmHg 91%
    03:00 +3°C° 0 mm 6 mps 744 mmHg 90%
    04:00 +3°C° 0.1 mm 6 mps 744 mmHg 89%
    05:00 +3°C° 0.1 mm 6 mps 744 mmHg 88%
    06:00 +3°C° 0.1 mm 5 mps 744 mmHg 88%
    07:00 +3°C° 0 mm 5 mps 744 mmHg 87%
    08:00 +3°C° 0 mm 5 mps 744 mmHg 87%
    09:00 +2°C° 0 mm 5 mps 744 mmHg 87%
    10:00 +3°C° 0 mm 5 mps 744 mmHg 84%
    11:00 +4°C° 0 mm 6 mps 743 mmHg 80%
    12:00 +5°C° 0 mm 6 mps 743 mmHg 77%
    13:00 +6°C° 0.1 mm 5 mps 742 mmHg 78%
    14:00 +6°C° 0.1 mm 5 mps 741 mmHg 79%
    15:00 +6°C° 0.1 mm 5 mps 740 mmHg 80%
    16:00 +5°C° 0.1 mm 5 mps 739 mmHg 82%
    17:00 +5°C° 0.1 mm 5 mps 738 mmHg 85%
    18:00 +5°C° 0.1 mm 5 mps 737 mmHg 87%
    19:00 +5°C° 0.2 mm 5 mps 737 mmHg 88%
    20:00 +5°C° 0.2 mm 5 mps 736 mmHg 89%
    21:00 +3°C° 0.2 mm 5 mps 735 mmHg 90%
    22:00 +3°C° 0.1 mm 5 mps 734 mmHg 90%
    23:00 +2°C° 0.1 mm 5 mps 734 mmHg 90%

    28 January, Tuesday

    Time Temperature Precipitation Wind Pressure Humidity
    00:00 +2°C° 0.1 mm 5 mps 733 mmHg 90%
    01:00 +1°C° 0 mm 5 mps 734 mmHg 87%
    02:00 +1°C° 0 mm 6 mps 734 mmHg 83%
    03:00 0°C° 0 mm 7 mps 734 mmHg 80%
    04:00 -1°C° 0 mm 6 mps 735 mmHg 80%
    05:00 0°C° 0 mm 5 mps 735 mmHg 79%
    06:00 -1°C° 0 mm 4 mps 735 mmHg 78%
    07:00 0°C° 0.1 mm 5 mps 735 mmHg 80%
    08:00 -1°C° 0.1 mm 6 mps 735 mmHg 81%
    09:00 0°C° 0.1 mm 7 mps 735 mmHg 82%
    10:00 0°C° 0 mm 8 mps 736 mmHg 78%
    11:00 +1°C° 0 mm 9 mps 736 mmHg 73%
    12:00 +1°C° 0 mm 10 mps 736 mmHg 69%
    13:00 +1°C° 0 mm 9 mps 736 mmHg 68%
    14:00 +1°C° 0 mm 8 mps 736 mmHg 67%
    15:00 +1°C° 0 mm 8 mps 737 mmHg 66%
    16:00 0°C° 0 mm 7 mps 737 mmHg 68%
    17:00 -1°C° 0 mm 7 mps 738 mmHg 69%
    18:00 -2°C° 0 mm 6 mps 738 mmHg 71%
    19:00 -2°C° 0 mm 6 mps 739 mmHg 72%
    20:00 -2°C° 0 mm 6 mps 739 mmHg 72%
    21:00 -2°C° 0 mm 6 mps 739 mmHg 72%
    22:00 -2°C° 0 mm 7 mps 740 mmHg 73%
    23:00 -2°C° 0 mm 7 mps 740 mmHg 74%

    29 January, Wednesday

    Time Temperature Precipitation Wind Pressure Humidity
    00:00 -2°C° 0 mm 7 mps 740 mmHg 75%
    01:00 -2°C° 0 mm 6 mps 740 mmHg 75%
    02:00 -2°C° 0 mm 6 mps 740 mmHg 75%
    03:00 -1°C° 0 mm 5 mps 740 mmHg 75%
    04:00 -2°C° 0 mm 6 mps 740 mmHg 76%
    05:00 -2°C° 0 mm 6 mps 741 mmHg 78%
    06:00 -2°C° 0 mm 6 mps 741 mmHg 80%
    07:00 -2°C° 0 mm 6 mps 741 mmHg 78%
    08:00 -2°C° 0 mm 6 mps 741 mmHg 77%
    09:00 -1°C° 0 mm 6 mps 741 mmHg 75%
    10:00 0°C° 0 mm 7 mps 741 mmHg 72%
    11:00 +1°C° 0 mm 9 mps 741 mmHg 69%
    12:00 +2°C° 0 mm 10 mps 741 mmHg 66%
    13:00 +2°C° 0 mm 10 mps 741 mmHg 66%
    14:00 +3°C° 0 mm 9 mps 741 mmHg 66%
    15:00 +3°C° 0 mm 9 mps 742 mmHg 65%
    16:00 +2°C° 0 mm 8 mps 742 mmHg 70%
    17:00 +1°C° 0 mm 8 mps 743 mmHg 75%
    18:00 +2°C° 0 mm 7 mps 744 mmHg 80%
    19:00 +2°C° 0 mm 7 mps 744 mmHg 80%
    20:00 +2°C° 0 mm 7 mps 744 mmHg 80%
    21:00 +1°C° 0 mm 8 mps 745 mmHg 81%
    22:00 +1°C° 0 mm 8 mps 745 mmHg 80%
    23:00 +1°C° 0 mm 8 mps 745 mmHg 80%
    Show more